Location: Unspecified
(41.1637°N, 0.0000°E)
Time: 20:20:23
(UTC+00:00)

CAS-4B - Visible Passes

Search period start: 24 August 2019 00:00
Search period end: 03 September 2019 00:00
Orbit: 528 x 546 km, 43.0° (Epoch: 24 August)

Date Brightness Start Highest point End Pass type
(mag) Time Alt. Az. Time Alt. Az. Time Alt. Az.
24 Aug ? 19:41:31 10° SW 19:45:15 35° SSE 19:48:12 15° E visible
24 Aug ? 21:21:08 10° W 21:23:36 35° W 21:23:36 35° W visible
25 Aug ? 19:31:14 10° SW 19:35:07 43° SSE 19:38:57 11° E visible
25 Aug ? 21:11:05 10° W 21:14:20 53° W 21:14:20 53° W visible
26 Aug ? 19:21:01 10° SW 19:24:59 52° SSE 19:29:01 10° E visible
26 Aug ? 21:01:02 10° W 21:04:52 67° NW 21:04:52 67° NW visible
27 Aug ? 19:10:50 10° WSW 19:14:53 63° SSE 19:18:58 10° ENE visible
27 Aug ? 20:51:01 10° W 20:55:06 67° N 20:55:17 66° NNE visible
28 Aug ? 19:00:43 10° WSW 19:04:47 74° SSE 19:08:54 10° ENE visible
28 Aug ? 20:40:58 10° W 20:45:03 66° N 20:45:37 58° NE visible
29 Aug ? 20:30:56 10° W 20:35:01 66° N 20:35:53 50° ENE visible
29 Aug ? 22:11:11 10° WNW 22:11:14 10° WNW 22:11:14 10° WNW visible
30 Aug ? 20:20:53 10° W 20:24:59 68° N 20:26:07 44° ENE visible
30 Aug ? 22:01:07 10° WNW 22:01:28 12° WNW 22:01:28 12° WNW visible
31 Aug ? 20:10:50 10° WNW 20:14:56 71° N 20:16:19 39° E visible
31 Aug ? 21:51:05 10° W 21:51:40 14° W 21:51:40 14° W visible
01 Sep ? 20:00:47 10° WNW 20:04:53 76° NNE 20:06:32 35° E visible
01 Sep ? 21:41:03 10° W 21:41:52 15° W 21:41:52 15° W visible
02 Sep ? 19:50:43 10° WNW 19:54:49 82° NNE 19:56:44 31° E visible
02 Sep ? 21:31:04 10° W 21:32:05 16° W 21:32:05 16° W visible
